Location: Unspecified
(43.4680°N, 87.1740°E)
Time: 04:37:13
(UTC+00:00)

Okean 2 - Pass Details

Date: 17 April 2021
Orbit: 559 x 576 km, 82.5° (Epoch: 16 May)

Event Time Altitude Azimuth Distance (km) Brightness Sun altitude
Rises 22:38:37 0° 191° (S) 2,757 6.5 -8.6°
Reaches altitude 10° 22:40:47 10° 193° (SSW) 1,867 5.7 -8.3°
Maximum altitude 22:44:54 74° 278° (W) 602 3.4 -7.6°
Drops below altitude 10° 22:49:05 10° 5° (N) 1,892 6.4 -6.9°
Sets 22:51:17 0° 7° (N) 2,797 7.3 -6.5°
